AAL1459 KPHL-KPBI

Flight info

Callsign AAL1459
Flight time 2h 16m
Altitude 38000
Route OOD TEBEE HAYDO TRPOD Q409 CRPLR EARZZ Q131 WAALT Y289 DULEE CLMNT2
Aircraft B738/M-SDE2E3FGHIRWXY/LB1

Departure

Time 2026-04-26 17:56
Airport Philadelphia International Airport (KPHL)

Arrival

Time 2026-04-26 20:13
Airport Palm Beach International Airport (KPBI)
Time Latitude Longitude Altitude Speed Heading
2026-04-26 17:10 39.87573 -75.24113 24 ft 0 kts 264°
2026-04-26 17:38 39.87574 -75.24101 29 ft 4 kts 262°
2026-04-26 17:39 39.87580 -75.24070 29 ft 4 kts 226°
2026-04-26 17:39 39.87590 -75.24063 26 ft 1 kts 153°
2026-04-26 17:49 39.87589 -75.24062 26 ft 1 kts 153°
2026-04-26 17:49 39.87556 -75.24029 29 ft 11 kts 131°
2026-04-26 17:49 39.87504 -75.23945 24 ft 12 kts 143°
2026-04-26 17:49 39.87427 -75.23902 28 ft 12 kts 164°
2026-04-26 17:50 39.87348 -75.23878 25 ft 12 kts 180°
2026-04-26 17:50 39.87305 -75.23953 24 ft 11 kts 253°
2026-04-26 17:50 39.87287 -75.24050 27 ft 11 kts 255°
2026-04-26 17:50 39.87264 -75.24144 27 ft 11 kts 252°
2026-04-26 17:51 39.87241 -75.24263 26 ft 18 kts 256°
2026-04-26 17:51 39.87208 -75.24429 24 ft 19 kts 256°
2026-04-26 17:51 39.87176 -75.24593 25 ft 18 kts 255°
2026-04-26 17:51 39.87144 -75.24751 28 ft 18 kts 255°
2026-04-26 17:52 39.87113 -75.24904 28 ft 17 kts 255°
2026-04-26 17:52 39.87083 -75.25052 26 ft 17 kts 255°
2026-04-26 17:52 39.87056 -75.25194 28 ft 16 kts 256°
2026-04-26 17:52 39.87029 -75.25331 27 ft 15 kts 255°
2026-04-26 17:53 39.87002 -75.25461 24 ft 15 kts 255°
2026-04-26 17:53 39.86959 -75.25573 25 ft 14 kts 207°
2026-04-26 17:53 39.86886 -75.25521 27 ft 13 kts 99°
2026-04-26 17:54 39.86891 -75.25471 26 ft 0 kts 74°
2026-04-26 17:55 39.86913 -75.25359 24 ft 48 kts 76°
2026-04-26 17:55 39.87080 -75.24550 28 ft 134 kts 71°
2026-04-26 17:56 39.87355 -75.23119 255 ft 192 kts 76°
2026-04-26 17:56 39.87981 -75.19414 1503 ft 224 kts 77°
2026-04-26 17:57 39.88597 -75.15415 2498 ft 228 kts 76°
2026-04-26 17:57 39.88681 -75.13361 3003 ft 230 kts 96°
2026-04-26 17:57 39.88081 -75.11402 3545 ft 242 kts 120°
2026-04-26 17:57 39.86861 -75.09839 4067 ft 256 kts 143°
2026-04-26 17:58 39.81556 -75.08295 5624 ft 275 kts 192°
2026-04-26 17:59 39.78351 -75.10895 6668 ft 278 kts 225°
2026-04-26 17:59 39.76976 -75.12662 7148 ft 279 kts 226°
2026-04-26 17:59 39.75604 -75.14470 7649 ft 285 kts 227°
2026-04-26 17:59 39.74195 -75.16336 8171 ft 291 kts 227°
2026-04-26 18:00 39.72780 -75.18210 8647 ft 292 kts 227°
2026-04-26 18:00 39.71350 -75.20100 9172 ft 294 kts 227°
2026-04-26 18:00 39.69909 -75.22002 9688 ft 296 kts 227°
2026-04-26 18:00 39.68458 -75.23913 10167 ft 302 kts 228°
2026-04-26 18:01 39.66915 -75.25948 10382 ft 329 kts 227°
2026-04-26 18:01 39.65828 -75.27379 10574 ft 344 kts 227°
2026-04-26 18:01 39.63970 -75.29423 11195 ft 356 kts 213°
2026-04-26 18:01 39.61684 -75.30700 12018 ft 362 kts 195°
2026-04-26 18:02 39.59183 -75.31236 12844 ft 367 kts 188°
2026-04-26 18:02 39.57487 -75.31499 13352 ft 371 kts 188°
2026-04-26 18:02 39.54033 -75.32055 14307 ft 378 kts 189°
2026-04-26 18:02 39.51413 -75.32513 15015 ft 382 kts 190°
2026-04-26 18:03 39.48774 -75.32990 15745 ft 386 kts 190°
2026-04-26 18:03 39.46094 -75.33480 16436 ft 390 kts 190°
2026-04-26 18:03 39.43392 -75.33975 17119 ft 395 kts 190°
2026-04-26 18:03 39.40649 -75.34477 17801 ft 399 kts 191°
2026-04-26 18:04 39.37882 -75.34982 18489 ft 404 kts 191°
2026-04-26 18:04 39.35091 -75.35490 19106 ft 407 kts 191°
2026-04-26 18:04 39.32289 -75.35999 19746 ft 409 kts 191°
2026-04-26 18:05 39.26659 -75.37020 21031 ft 413 kts 191°
2026-04-26 18:05 39.23805 -75.37538 21646 ft 416 kts 191°
2026-04-26 18:05 39.20932 -75.38058 22224 ft 419 kts 191°
2026-04-26 18:05 39.18033 -75.38580 22824 ft 422 kts 191°
2026-04-26 18:06 39.15112 -75.39101 23415 ft 425 kts 191°
2026-04-26 18:06 39.12165 -75.39625 23968 ft 427 kts 191°
2026-04-26 18:06 39.09223 -75.40147 24532 ft 426 kts 191°
2026-04-26 18:06 39.06288 -75.40667 25141 ft 425 kts 191°
2026-04-26 18:07 39.03359 -75.41185 25684 ft 425 kts 191°
2026-04-26 18:07 39.00423 -75.41706 26171 ft 427 kts 191°
2026-04-26 18:07 38.97479 -75.42229 26658 ft 428 kts 191°
2026-04-26 18:07 38.95525 -75.42575 26985 ft 428 kts 192°
2026-04-26 18:08 38.91562 -75.43276 27478 ft 433 kts 191°
2026-04-26 18:08 38.88573 -75.43806 27905 ft 434 kts 191°
2026-04-26 18:08 38.85593 -75.44333 28575 ft 430 kts 192°
2026-04-26 18:08 38.82634 -75.44854 29141 ft 429 kts 192°
2026-04-26 18:09 38.79674 -75.45376 29526 ft 431 kts 192°
2026-04-26 18:09 38.76697 -75.45902 29864 ft 434 kts 192°
2026-04-26 18:09 38.73701 -75.46431 30250 ft 435 kts 192°
2026-04-26 18:09 38.70732 -75.46954 30580 ft 436 kts 192°
2026-04-26 18:10 38.67721 -75.47483 30907 ft 437 kts 192°
2026-04-26 18:10 38.64712 -75.48011 31313 ft 435 kts 192°
2026-04-26 18:10 38.61734 -75.48531 31885 ft 429 kts 192°
2026-04-26 18:10 38.58789 -75.49046 32393 ft 426 kts 192°
2026-04-26 18:11 38.55858 -75.49560 32779 ft 425 kts 192°
2026-04-26 18:11 38.52930 -75.50074 33128 ft 425 kts 192°
2026-04-26 18:11 38.50000 -75.50588 33534 ft 423 kts 192°
2026-04-26 18:11 38.47100 -75.51095 33980 ft 420 kts 192°
2026-04-26 18:12 38.44202 -75.51601 34357 ft 418 kts 192°
2026-04-26 18:12 38.41377 -75.52092 35150 ft 403 kts 193°
2026-04-26 18:12 38.38600 -75.52575 35432 ft 404 kts 193°
2026-04-26 18:13 38.33215 -75.54449 35576 ft 405 kts 207°
2026-04-26 18:13 38.30724 -75.56083 35822 ft 401 kts 216°
2026-04-26 18:13 38.28418 -75.58064 36100 ft 400 kts 217°
2026-04-26 18:13 38.26871 -75.59427 36244 ft 400 kts 218°
2026-04-26 18:14 38.23832 -75.62117 36499 ft 402 kts 218°
2026-04-26 18:14 38.21541 -75.64137 36816 ft 400 kts 218°
2026-04-26 18:14 38.19250 -75.66147 37140 ft 398 kts 218°
2026-04-26 18:14 38.16972 -75.68138 37307 ft 400 kts 218°
2026-04-26 18:15 38.14661 -75.70152 37436 ft 403 kts 218°
2026-04-26 18:15 38.12340 -75.72170 37560 ft 405 kts 218°
2026-04-26 18:15 38.10009 -75.74193 37765 ft 405 kts 218°
2026-04-26 18:15 38.07685 -75.76207 37993 ft 405 kts 218°
2026-04-26 18:16 38.05346 -75.78231 38134 ft 407 kts 218°
2026-04-26 18:16 37.98291 -75.84332 38126 ft 410 kts 218°
2026-04-26 18:17 37.93594 -75.88383 38132 ft 407 kts 218°
2026-04-26 18:17 37.88926 -75.92405 38131 ft 404 kts 218°
2026-04-26 18:18 37.84287 -75.96396 38135 ft 402 kts 218°
2026-04-26 18:18 37.79656 -76.00375 38136 ft 401 kts 218°
2026-04-26 18:19 37.75041 -76.04334 38142 ft 402 kts 217°
2026-04-26 18:19 37.70436 -76.08279 38141 ft 403 kts 217°
2026-04-26 18:20 37.65787 -76.12256 38150 ft 405 kts 217°
2026-04-26 18:20 37.61891 -76.15553 38133 ft 407 kts 214°
2026-04-26 18:21 37.58449 -76.17645 38126 ft 414 kts 202°
2026-04-26 18:21 37.55705 -76.18788 38138 ft 416 kts 202°
2026-04-26 18:21 37.50170 -76.21029 38136 ft 419 kts 202°
2026-04-26 18:22 37.44601 -76.23300 38134 ft 421 kts 202°
2026-04-26 18:22 37.39055 -76.25583 38128 ft 423 kts 202°
2026-04-26 18:23 37.33453 -76.27898 38116 ft 423 kts 202°
2026-04-26 18:23 37.27867 -76.30205 38117 ft 422 kts 202°
2026-04-26 18:24 37.22297 -76.32501 38117 ft 421 kts 202°
2026-04-26 18:24 37.16733 -76.34792 38107 ft 419 kts 202°
2026-04-26 18:25 37.11203 -76.37065 38106 ft 417 kts 202°
2026-04-26 18:25 37.05698 -76.39325 38108 ft 416 kts 202°
2026-04-26 18:26 37.00209 -76.41574 38111 ft 414 kts 202°
2026-04-26 18:26 36.94736 -76.43814 38120 ft 414 kts 202°
2026-04-26 18:27 36.89267 -76.46049 38105 ft 413 kts 202°
2026-04-26 18:27 36.83835 -76.48265 38114 ft 414 kts 202°
2026-04-26 18:28 36.78349 -76.50500 38123 ft 415 kts 202°
2026-04-26 18:28 36.72842 -76.52741 38121 ft 417 kts 202°
2026-04-26 18:29 36.67316 -76.54986 38115 ft 419 kts 202°
2026-04-26 18:29 36.61764 -76.57237 38125 ft 421 kts 202°
2026-04-26 18:30 36.56181 -76.59497 38091 ft 423 kts 202°
2026-04-26 18:30 36.50575 -76.61764 38088 ft 424 kts 201°
2026-04-26 18:31 36.44987 -76.64019 38075 ft 425 kts 201°
2026-04-26 18:31 36.39356 -76.66288 38083 ft 426 kts 201°
2026-04-26 18:32 36.33721 -76.68556 38083 ft 426 kts 201°
2026-04-26 18:32 36.28080 -76.70822 38078 ft 426 kts 201°
2026-04-26 18:33 36.22451 -76.73081 38073 ft 425 kts 201°
2026-04-26 18:33 36.16830 -76.75332 38083 ft 423 kts 201°
2026-04-26 18:34 36.11261 -76.77560 38083 ft 422 kts 201°
2026-04-26 18:34 36.05672 -76.79793 38085 ft 422 kts 201°
2026-04-26 18:35 36.00096 -76.82017 38065 ft 420 kts 201°
2026-04-26 18:35 35.94539 -76.84231 38074 ft 420 kts 201°
2026-04-26 18:36 35.89071 -76.86699 38083 ft 416 kts 209°
2026-04-26 18:36 35.83904 -76.89900 38072 ft 416 kts 211°
2026-04-26 18:37 35.78746 -76.93160 38078 ft 418 kts 210°
2026-04-26 18:37 35.73550 -76.96395 38073 ft 419 kts 210°
2026-04-26 18:38 35.68315 -76.99619 38090 ft 421 kts 210°
2026-04-26 18:38 35.63083 -77.02827 38085 ft 423 kts 210°
2026-04-26 18:39 35.57791 -77.06065 38083 ft 425 kts 210°
2026-04-26 18:39 35.52492 -77.09302 38073 ft 425 kts 210°
2026-04-26 18:40 35.47192 -77.12536 38082 ft 425 kts 210°
2026-04-26 18:40 35.41900 -77.15761 38074 ft 424 kts 210°
2026-04-26 18:41 35.36619 -77.18974 38048 ft 423 kts 210°
2026-04-26 18:41 35.31349 -77.22176 38057 ft 422 kts 210°
2026-04-26 18:42 35.26089 -77.25367 38039 ft 421 kts 210°
2026-04-26 18:42 35.20838 -77.28548 38047 ft 421 kts 210°
2026-04-26 18:43 35.15611 -77.31711 38048 ft 421 kts 210°
2026-04-26 18:43 35.10362 -77.34882 38047 ft 421 kts 210°
2026-04-26 18:44 35.05107 -77.38051 38037 ft 421 kts 210°
2026-04-26 18:44 34.99846 -77.41221 38033 ft 422 kts 210°
2026-04-26 18:45 34.94580 -77.44389 38029 ft 422 kts 210°
2026-04-26 18:45 34.89304 -77.47557 38026 ft 423 kts 210°
2026-04-26 18:46 34.84015 -77.50730 38000 ft 424 kts 211°
2026-04-26 18:46 34.78722 -77.53899 38022 ft 424 kts 211°
2026-04-26 18:47 34.73418 -77.57072 38029 ft 425 kts 211°
2026-04-26 18:47 34.68104 -77.60245 38010 ft 426 kts 211°
2026-04-26 18:48 34.63678 -77.62886 38001 ft 426 kts 211°
2026-04-26 18:48 34.58352 -77.66058 38001 ft 426 kts 211°
2026-04-26 18:49 34.54689 -77.67845 37997 ft 433 kts 200°
2026-04-26 18:49 34.52696 -77.68409 38011 ft 435 kts 197°
2026-04-26 18:49 34.46749 -77.69872 37994 ft 436 kts 197°
2026-04-26 18:50 34.40797 -77.71327 37990 ft 436 kts 197°
2026-04-26 18:50 34.34889 -77.72810 37968 ft 435 kts 197°
2026-04-26 18:51 34.28949 -77.74321 37984 ft 437 kts 198°
2026-04-26 18:51 34.22992 -77.75837 37986 ft 438 kts 198°
2026-04-26 18:52 34.17027 -77.77350 37967 ft 437 kts 197°
2026-04-26 18:52 34.11090 -77.78854 37932 ft 435 kts 198°
2026-04-26 18:53 34.05177 -77.80350 37961 ft 434 kts 198°
2026-04-26 18:53 33.99275 -77.81841 37968 ft 433 kts 198°
2026-04-26 18:54 33.93375 -77.83331 37969 ft 433 kts 198°
2026-04-26 18:54 33.87512 -77.84808 37969 ft 433 kts 198°
2026-04-26 18:55 33.81615 -77.86292 37960 ft 433 kts 198°
2026-04-26 18:55 33.75761 -77.87961 37975 ft 431 kts 201°
2026-04-26 18:56 33.69985 -77.89980 37941 ft 433 kts 202°
2026-04-26 18:56 33.64194 -77.91997 37958 ft 434 kts 202°
2026-04-26 18:57 33.59361 -77.93643 37941 ft 434 kts 201°
2026-04-26 18:57 33.52599 -77.95932 37949 ft 435 kts 202°
2026-04-26 18:58 33.46764 -77.97905 37948 ft 436 kts 202°
2026-04-26 18:58 33.40934 -77.99874 37945 ft 436 kts 202°
2026-04-26 18:59 33.35086 -78.01847 37927 ft 436 kts 202°
2026-04-26 18:59 33.29252 -78.03813 37939 ft 436 kts 202°
2026-04-26 19:00 33.23409 -78.05779 37946 ft 436 kts 202°
2026-04-26 19:00 33.17562 -78.07744 37945 ft 437 kts 202°
2026-04-26 19:01 33.11705 -78.09710 37944 ft 437 kts 202°
2026-04-26 19:01 33.05864 -78.11667 37941 ft 436 kts 201°
2026-04-26 19:02 33.00013 -78.13625 37945 ft 437 kts 201°
2026-04-26 19:02 32.95150 -78.15251 37948 ft 437 kts 201°
2026-04-26 19:03 32.88322 -78.17531 37941 ft 438 kts 201°
2026-04-26 19:03 32.82447 -78.19489 37940 ft 439 kts 201°
2026-04-26 19:04 32.76564 -78.21448 37938 ft 439 kts 201°
2026-04-26 19:04 32.70674 -78.23403 37937 ft 440 kts 201°
2026-04-26 19:05 32.61824 -78.26321 37940 ft 440 kts 201°
2026-04-26 19:06 32.55925 -78.28262 37943 ft 439 kts 201°
2026-04-26 19:06 32.50033 -78.30200 37942 ft 439 kts 201°
2026-04-26 19:07 32.44140 -78.32137 37938 ft 440 kts 201°
2026-04-26 19:07 32.38243 -78.34072 37933 ft 440 kts 201°
2026-04-26 19:08 32.32344 -78.36006 37926 ft 440 kts 201°
2026-04-26 19:08 32.26488 -78.37930 37930 ft 440 kts 201°
2026-04-26 19:09 32.20589 -78.39868 37937 ft 440 kts 201°
2026-04-26 19:09 32.14684 -78.41805 37934 ft 441 kts 201°
2026-04-26 19:10 32.08772 -78.43742 37896 ft 441 kts 201°
2026-04-26 19:10 32.02857 -78.45677 37935 ft 442 kts 201°
2026-04-26 19:11 31.96922 -78.47616 37942 ft 443 kts 201°
2026-04-26 19:11 31.90964 -78.49560 37938 ft 445 kts 201°
2026-04-26 19:12 31.84978 -78.51510 37937 ft 447 kts 201°
2026-04-26 19:12 31.78997 -78.53456 37921 ft 448 kts 200°
2026-04-26 19:13 31.72979 -78.55410 37940 ft 450 kts 200°
2026-04-26 19:13 31.66940 -78.57370 37941 ft 451 kts 200°
2026-04-26 19:14 31.60888 -78.59332 37931 ft 451 kts 200°
2026-04-26 19:14 31.54834 -78.61291 37906 ft 451 kts 200°
2026-04-26 19:15 31.48795 -78.63318 37931 ft 450 kts 201°
2026-04-26 19:15 31.42789 -78.65397 37940 ft 450 kts 201°
2026-04-26 19:16 31.36791 -78.67468 37940 ft 450 kts 201°
2026-04-26 19:16 31.30782 -78.69529 37926 ft 450 kts 202°
2026-04-26 19:17 31.24759 -78.71587 37936 ft 450 kts 201°
2026-04-26 19:17 31.18793 -78.73623 37942 ft 450 kts 201°
2026-04-26 19:18 31.12766 -78.75678 37931 ft 451 kts 201°
2026-04-26 19:18 31.06729 -78.77733 37940 ft 452 kts 201°
2026-04-26 19:19 31.00681 -78.79789 37921 ft 453 kts 201°
2026-04-26 19:19 30.94615 -78.81848 37941 ft 454 kts 201°
2026-04-26 19:20 30.88543 -78.83907 37943 ft 454 kts 201°
2026-04-26 19:20 30.82461 -78.85966 37937 ft 455 kts 201°
2026-04-26 19:21 30.76421 -78.88009 37916 ft 455 kts 201°
2026-04-26 19:21 30.70341 -78.90062 37935 ft 455 kts 201°
2026-04-26 19:22 30.64251 -78.92116 37939 ft 455 kts 201°
2026-04-26 19:22 30.58160 -78.94168 37937 ft 456 kts 201°
2026-04-26 19:23 30.52068 -78.96218 37940 ft 456 kts 201°
2026-04-26 19:23 30.45985 -78.98262 37931 ft 456 kts 201°
2026-04-26 19:24 30.39856 -79.00217 37938 ft 458 kts 198°
2026-04-26 19:24 30.30497 -79.02555 37939 ft 459 kts 197°
2026-04-26 19:25 30.26363 -79.03602 37943 ft 459 kts 197°
2026-04-26 19:25 30.18070 -79.05756 37942 ft 458 kts 198°
2026-04-26 19:26 30.11849 -79.07394 37940 ft 459 kts 198°
2026-04-26 19:26 30.05613 -79.09026 37947 ft 459 kts 198°
2026-04-26 19:27 29.99390 -79.10652 37944 ft 459 kts 198°
2026-04-26 19:27 29.93142 -79.12283 37923 ft 460 kts 198°
2026-04-26 19:28 29.86912 -79.13907 37943 ft 460 kts 198°
2026-04-26 19:28 29.80705 -79.15519 37946 ft 460 kts 198°
2026-04-26 19:29 29.74449 -79.17117 37943 ft 460 kts 198°
2026-04-26 19:29 29.68189 -79.18709 37945 ft 461 kts 198°
2026-04-26 19:30 29.61925 -79.20302 37940 ft 460 kts 198°
2026-04-26 19:30 29.56709 -79.21630 37936 ft 460 kts 198°
2026-04-26 19:31 29.49398 -79.23489 37948 ft 461 kts 198°
2026-04-26 19:31 29.43173 -79.25070 37947 ft 461 kts 198°
2026-04-26 19:32 29.36913 -79.26657 37935 ft 460 kts 198°
2026-04-26 19:32 29.30658 -79.28241 37938 ft 460 kts 198°
2026-04-26 19:33 29.24401 -79.29824 37944 ft 460 kts 198°
2026-04-26 19:33 29.18148 -79.31403 37949 ft 460 kts 198°
2026-04-26 19:34 29.11911 -79.32977 37943 ft 459 kts 198°
2026-04-26 19:34 29.08773 -79.33770 37449 ft 465 kts 198°
2026-04-26 19:34 29.05625 -79.34563 36981 ft 461 kts 198°
2026-04-26 19:35 29.03554 -79.35083 36672 ft 458 kts 198°
2026-04-26 19:35 29.00450 -79.35862 36212 ft 454 kts 199°
2026-04-26 19:35 28.97377 -79.36633 35769 ft 451 kts 199°
2026-04-26 19:35 28.94317 -79.37401 35331 ft 449 kts 199°
2026-04-26 19:36 28.91277 -79.38165 34900 ft 446 kts 199°
2026-04-26 19:36 28.89272 -79.38668 34618 ft 444 kts 200°
2026-04-26 19:36 28.85244 -79.39679 34063 ft 441 kts 200°
2026-04-26 19:36 28.82256 -79.40429 33578 ft 438 kts 200°
2026-04-26 19:37 28.79324 -79.41164 33111 ft 436 kts 199°
2026-04-26 19:37 28.76369 -79.41905 32645 ft 434 kts 199°
2026-04-26 19:37 28.73429 -79.42641 32192 ft 431 kts 199°
2026-04-26 19:37 28.70506 -79.43373 31738 ft 429 kts 199°
2026-04-26 19:38 28.67600 -79.44100 31300 ft 426 kts 198°
2026-04-26 19:38 28.64704 -79.44824 30867 ft 424 kts 198°
2026-04-26 19:38 28.61820 -79.45545 30440 ft 421 kts 198°
2026-04-26 19:38 28.58962 -79.46258 30019 ft 419 kts 198°
2026-04-26 19:39 28.56129 -79.46965 29526 ft 416 kts 198°
2026-04-26 19:39 28.53309 -79.47668 29035 ft 413 kts 197°
2026-04-26 19:39 28.50511 -79.48366 28557 ft 410 kts 197°
2026-04-26 19:39 28.47731 -79.49058 28084 ft 407 kts 197°
2026-04-26 19:40 28.44972 -79.49745 27622 ft 405 kts 197°
2026-04-26 19:40 28.42231 -79.50427 27168 ft 402 kts 197°
2026-04-26 19:40 28.39515 -79.51103 26721 ft 399 kts 197°
2026-04-26 19:40 28.36798 -79.51779 26279 ft 397 kts 197°
2026-04-26 19:41 28.34111 -79.52447 25849 ft 394 kts 196°
2026-04-26 19:41 28.31441 -79.53110 25413 ft 392 kts 196°
2026-04-26 19:41 28.28826 -79.53772 25008 ft 389 kts 197°
2026-04-26 19:41 28.27048 -79.54248 24727 ft 387 kts 197°
2026-04-26 19:42 28.23587 -79.55200 24171 ft 384 kts 197°
2026-04-26 19:42 28.21011 -79.55912 23995 ft 375 kts 197°
2026-04-26 19:42 28.18516 -79.56596 23947 ft 363 kts 197°
2026-04-26 19:42 28.16098 -79.57256 23940 ft 353 kts 197°
2026-04-26 19:43 28.13687 -79.57917 23956 ft 361 kts 197°
2026-04-26 19:43 28.11210 -79.58595 23974 ft 370 kts 197°
2026-04-26 19:43 28.08699 -79.59280 23954 ft 371 kts 197°
2026-04-26 19:43 28.06193 -79.59960 23944 ft 368 kts 197°
2026-04-26 19:44 28.03711 -79.60633 23939 ft 367 kts 197°
2026-04-26 19:44 28.01221 -79.61309 23814 ft 370 kts 197°
2026-04-26 19:44 27.98696 -79.61996 23357 ft 374 kts 197°
2026-04-26 19:44 27.96166 -79.62682 22889 ft 374 kts 197°
2026-04-26 19:45 27.93642 -79.63366 22418 ft 373 kts 197°
2026-04-26 19:45 27.91114 -79.64050 21960 ft 372 kts 197°
2026-04-26 19:45 27.88600 -79.64730 21506 ft 370 kts 197°
2026-04-26 19:45 27.86130 -79.65399 21067 ft 369 kts 196°
2026-04-26 19:46 27.83635 -79.66074 20628 ft 368 kts 196°
2026-04-26 19:46 27.81153 -79.66745 20200 ft 366 kts 196°
2026-04-26 19:46 27.78680 -79.67413 19774 ft 365 kts 196°
2026-04-26 19:46 27.76214 -79.68080 19360 ft 364 kts 196°
2026-04-26 19:47 27.73758 -79.68743 18935 ft 362 kts 196°
2026-04-26 19:47 27.72135 -79.69181 18664 ft 361 kts 196°
2026-04-26 19:47 27.68872 -79.70062 18115 ft 360 kts 196°
2026-04-26 19:47 27.66446 -79.70716 17629 ft 358 kts 196°
2026-04-26 19:48 27.64023 -79.71369 17180 ft 357 kts 196°
2026-04-26 19:48 27.61614 -79.72018 16728 ft 355 kts 196°
2026-04-26 19:48 27.59212 -79.72665 16278 ft 354 kts 196°
2026-04-26 19:48 27.56825 -79.73307 15838 ft 352 kts 196°
2026-04-26 19:49 27.54447 -79.73947 15405 ft 351 kts 196°
2026-04-26 19:49 27.52077 -79.74584 15033 ft 347 kts 197°
2026-04-26 19:49 27.49768 -79.75203 14968 ft 334 kts 197°
2026-04-26 19:49 27.47551 -79.75796 14937 ft 322 kts 197°
2026-04-26 19:50 27.45414 -79.76370 14934 ft 319 kts 197°
2026-04-26 19:50 27.43246 -79.76954 14948 ft 321 kts 197°
2026-04-26 19:50 27.41065 -79.77541 14949 ft 322 kts 197°
2026-04-26 19:50 27.38896 -79.78124 14940 ft 320 kts 197°
2026-04-26 19:51 27.36760 -79.78696 14925 ft 309 kts 197°
2026-04-26 19:51 27.34711 -79.79243 14713 ft 300 kts 197°
2026-04-26 19:51 27.32695 -79.79784 14284 ft 296 kts 197°
2026-04-26 19:51 27.30696 -79.80320 13864 ft 292 kts 198°
2026-04-26 19:52 27.28736 -79.80846 13406 ft 289 kts 198°
2026-04-26 19:52 27.26791 -79.81368 12944 ft 286 kts 197°
2026-04-26 19:52 27.24991 -79.81850 12515 ft 283 kts 197°
2026-04-26 19:52 27.23088 -79.82359 12065 ft 280 kts 197°
2026-04-26 19:53 27.21205 -79.82869 11624 ft 277 kts 199°
2026-04-26 19:53 27.19437 -79.83670 11181 ft 270 kts 211°
2026-04-26 19:53 27.17794 -79.84667 10752 ft 267 kts 212°
2026-04-26 19:53 27.16187 -79.85674 10328 ft 265 kts 212°
2026-04-26 19:54 27.14602 -79.86658 9911 ft 263 kts 212°
2026-04-26 19:54 27.13003 -79.87637 9453 ft 261 kts 211°
2026-04-26 19:54 27.11409 -79.88603 9063 ft 257 kts 211°
2026-04-26 19:54 27.09971 -79.89466 8990 ft 241 kts 211°
2026-04-26 19:55 27.08541 -79.90320 8970 ft 227 kts 211°
2026-04-26 19:55 27.07158 -79.91145 8936 ft 226 kts 211°
2026-04-26 19:55 27.05752 -79.91984 8688 ft 230 kts 211°
2026-04-26 19:55 27.04342 -79.92824 8462 ft 228 kts 211°
2026-04-26 19:56 27.02959 -79.93645 8197 ft 221 kts 211°
2026-04-26 19:56 27.01627 -79.94436 8027 ft 210 kts 211°
2026-04-26 19:56 27.00377 -79.95177 7985 ft 199 kts 211°
2026-04-26 19:56 26.99157 -79.95903 7999 ft 199 kts 211°
2026-04-26 19:57 26.97933 -79.96630 7993 ft 199 kts 211°
2026-04-26 19:57 26.96709 -79.97357 7990 ft 199 kts 211°
2026-04-26 19:57 26.95480 -79.98087 7997 ft 199 kts 211°
2026-04-26 19:57 26.94329 -79.98933 7997 ft 197 kts 220°
2026-04-26 19:58 26.93250 -79.99877 7987 ft 197 kts 221°
2026-04-26 19:58 26.92168 -80.00832 7985 ft 197 kts 221°
2026-04-26 19:58 26.91088 -80.01779 7989 ft 197 kts 221°
2026-04-26 19:58 26.89998 -80.02728 7990 ft 199 kts 221°
2026-04-26 19:59 26.88892 -80.03687 7733 ft 206 kts 220°
2026-04-26 19:59 26.87753 -80.04670 7375 ft 206 kts 220°
2026-04-26 19:59 26.86625 -80.05642 7033 ft 205 kts 220°
2026-04-26 19:59 26.85487 -80.06621 6704 ft 208 kts 220°
2026-04-26 20:00 26.84334 -80.07616 6340 ft 210 kts 220°
2026-04-26 20:00 26.83182 -80.08618 5951 ft 209 kts 220°
2026-04-26 20:00 26.82036 -80.09614 5573 ft 208 kts 220°
2026-04-26 20:00 26.80978 -80.10689 5189 ft 205 kts 237°
2026-04-26 20:01 26.80553 -80.12167 4880 ft 204 kts 263°
2026-04-26 20:01 26.80432 -80.13775 4523 ft 210 kts 264°
2026-04-26 20:01 26.80315 -80.15417 4146 ft 214 kts 265°
2026-04-26 20:01 26.80200 -80.17045 3982 ft 202 kts 265°
2026-04-26 20:02 26.80092 -80.18550 3965 ft 190 kts 265°
2026-04-26 20:02 26.79985 -80.20019 3979 ft 188 kts 264°
2026-04-26 20:02 26.79859 -80.21468 3983 ft 185 kts 265°
2026-04-26 20:02 26.79793 -80.22411 3991 ft 182 kts 265°
2026-04-26 20:03 26.79668 -80.24313 3992 ft 184 kts 265°
2026-04-26 20:03 26.79577 -80.25753 3998 ft 187 kts 265°
2026-04-26 20:03 26.79488 -80.27216 4021 ft 189 kts 265°
2026-04-26 20:03 26.79398 -80.28684 4004 ft 188 kts 266°
2026-04-26 20:04 26.79303 -80.30128 3980 ft 183 kts 265°
2026-04-26 20:04 26.79211 -80.31541 3977 ft 182 kts 265°
2026-04-26 20:04 26.79122 -80.32944 4004 ft 185 kts 265°
2026-04-26 20:04 26.79031 -80.34408 4016 ft 191 kts 266°
2026-04-26 20:05 26.78937 -80.35891 3988 ft 187 kts 265°
2026-04-26 20:05 26.78849 -80.37316 3974 ft 180 kts 265°
2026-04-26 20:05 26.78643 -80.38688 3988 ft 182 kts 247°
2026-04-26 20:05 26.77854 -80.39808 3968 ft 189 kts 217°
2026-04-26 20:06 26.76585 -80.40391 3610 ft 205 kts 189°
2026-04-26 20:06 26.75169 -80.40217 3240 ft 207 kts 161°
2026-04-26 20:06 26.74007 -80.39303 3022 ft 200 kts 130°
2026-04-26 20:06 26.73282 -80.38063 2978 ft 187 kts 123°
2026-04-26 20:07 26.72609 -80.36824 3002 ft 186 kts 123°
2026-04-26 20:07 26.71927 -80.35580 3001 ft 189 kts 124°
2026-04-26 20:07 26.71226 -80.34360 2987 ft 187 kts 124°
2026-04-26 20:07 26.70517 -80.33147 2980 ft 186 kts 124°
2026-04-26 20:08 26.69815 -80.31936 2974 ft 185 kts 125°
2026-04-26 20:08 26.69227 -80.30644 2972 ft 191 kts 102°
2026-04-26 20:08 26.69157 -80.29165 3003 ft 190 kts 93°
2026-04-26 20:08 26.69078 -80.27695 2901 ft 186 kts 94°
2026-04-26 20:09 26.69005 -80.26282 2671 ft 177 kts 94°
2026-04-26 20:09 26.68943 -80.24935 2450 ft 168 kts 94°
2026-04-26 20:09 26.68885 -80.23654 2253 ft 166 kts 93°
2026-04-26 20:09 26.68829 -80.22368 2032 ft 165 kts 93°
2026-04-26 20:10 26.68772 -80.21090 1828 ft 166 kts 93°
2026-04-26 20:10 26.68716 -80.19824 1626 ft 162 kts 93°
2026-04-26 20:10 26.68661 -80.18589 1425 ft 155 kts 93°
2026-04-26 20:10 26.68608 -80.17385 1214 ft 152 kts 92°
2026-04-26 20:11 26.68559 -80.16188 1018 ft 156 kts 96°
2026-04-26 20:11 26.68502 -80.15011 791 ft 147 kts 102°
2026-04-26 20:11 26.68474 -80.13862 637 ft 145 kts 95°
2026-04-26 20:12 26.68372 -80.11644 270 ft 139 kts 96°
2026-04-26 20:12 26.68315 -80.10581 70 ft 133 kts 96°
2026-04-26 20:12 26.68244 -80.09656 32 ft 95 kts 95°
2026-04-26 20:12 26.68248 -80.09095 25 ft 54 kts 92°
2026-04-26 20:13 26.68272 -80.08859 25 ft 11 kts 32°
2026-04-26 20:13 26.68318 -80.08853 25 ft 0 kts 359°
2026-04-26 20:13 26.68321 -80.08853 24 ft 4 kts
2026-04-26 20:13 26.68389 -80.08842 24 ft 11 kts 11°
2026-04-26 20:14 26.68453 -80.08791 27 ft 12 kts 36°
2026-04-26 20:14 26.68558 -80.08774 26 ft 18 kts 353°
2026-04-26 20:14 26.68640 -80.08840 27 ft 8 kts 280°
2026-04-26 20:14 26.68644 -80.08893 27 ft 3 kts 274°
2026-04-26 20:15 26.68644 -80.08896 27 ft 0 kts 274°